Previsão horária em Abercorn

Hoje, 25 Janeiro, Segunda-feira

Tempo Temperatura Precipitação Vento Pressão Humidade
00:00 -16°C° 0 mm 1 m/s 745 mmHg 96%
01:00 -18°C° 0 mm 2 m/s 745 mmHg 97%
02:00 -17°C° 0 mm 1 m/s 745 mmHg 97%
03:00 -17°C° 0 mm 1 m/s 745 mmHg 96%
04:00 -18°C° 0 mm 1 m/s 746 mmHg 96%
05:00 -18°C° 0 mm 1 m/s 746 mmHg 96%
06:00 -18°C° 0 mm 1 m/s 746 mmHg 95%
07:00 -18°C° 0 mm 1 m/s 746 mmHg 95%
08:00 -16°C° 0 mm 1 m/s 746 mmHg 92%
09:00 -14°C° 0 mm 1 m/s 746 mmHg 89%
10:00 -12°C° 0 mm 1 m/s 746 mmHg 86%
11:00 -11°C° 0 mm 1 m/s 746 mmHg 86%
12:00 -12°C° 0 mm 2 m/s 745 mmHg 85%
13:00 -10°C° 0 mm 2 m/s 745 mmHg 85%
14:00 -10°C° 0 mm 1 m/s 745 mmHg 87%
15:00 -10°C° 0 mm 1 m/s 745 mmHg 90%
16:00 -10°C° 0 mm 1 m/s 745 mmHg 93%
17:00 -11°C° 0 mm 1 m/s 745 mmHg 93%
18:00 -12°C° 0 mm 1 m/s 745 mmHg 93%
19:00 -13°C° 0 mm 1 m/s 746 mmHg 94%
20:00 -13°C° 0 mm 1 m/s 746 mmHg 94%
21:00 -13°C° 0 mm 1 m/s 746 mmHg 95%
22:00 -13°C° 0 mm 1 m/s 746 mmHg 95%
23:00 -13°C° 0 mm 1 m/s 746 mmHg 95%

Amanhã, 26 Janeiro, Terça-feira

Tempo Temperatura Precipitação Vento Pressão Humidade
00:00 -12°C° 0 mm 1 m/s 746 mmHg 95%
01:00 -12°C° 0 mm 0 m/s 745 mmHg 95%
02:00 -12°C° 0 mm 0 m/s 745 mmHg 96%
03:00 -12°C° 0 mm 0 m/s 745 mmHg 96%
04:00 -13°C° 0 mm 0 m/s 745 mmHg 96%
05:00 -13°C° 0 mm 0 m/s 745 mmHg 96%
06:00 -13°C° 0 mm 0 m/s 745 mmHg 95%
07:00 -13°C° 0 mm 1 m/s 746 mmHg 95%
08:00 -11°C° 0 mm 1 m/s 746 mmHg 93%
09:00 -9°C° 0 mm 1 m/s 745 mmHg 91%
10:00 -7°C° 0 mm 1 m/s 745 mmHg 89%
11:00 -6°C° 0 mm 1 m/s 745 mmHg 88%
12:00 -4°C° 0 mm 1 m/s 744 mmHg 86%
13:00 -2°C° 0 mm 1 m/s 744 mmHg 85%
14:00 -3°C° 0 mm 1 m/s 743 mmHg 86%
15:00 -3°C° 0 mm 1 m/s 743 mmHg 88%
16:00 -3°C° 0 mm 1 m/s 743 mmHg 89%
17:00 -4°C° 0 mm 1 m/s 743 mmHg 90%
18:00 -4°C° 0 mm 1 m/s 743 mmHg 91%
19:00 -6°C° 0 mm 1 m/s 743 mmHg 91%
20:00 -6°C° 0.2 mm 1 m/s 743 mmHg 93%
21:00 -4°C° 0.2 mm 1 m/s 742 mmHg 94%
22:00 -4°C° 0.2 mm 1 m/s 742 mmHg 96%
23:00 -4°C° 0.3 mm 1 m/s 742 mmHg 96%

Depois de amanhã, 27 Janeiro, Quarta-feira

Tempo Temperatura Precipitação Vento Pressão Humidade
00:00 -4°C° 0.3 mm 1 m/s 742 mmHg 96%
01:00 -4°C° 0.3 mm 1 m/s 742 mmHg 96%
02:00 -4°C° 0.1 mm 1 m/s 742 mmHg 96%
03:00 -4°C° 0.1 mm 1 m/s 742 mmHg 95%
04:00 -4°C° 0.1 mm 1 m/s 742 mmHg 95%
05:00 -6°C° 0.1 mm 1 m/s 742 mmHg 95%
06:00 -6°C° 0.1 mm 1 m/s 742 mmHg 95%
07:00 -6°C° 0.1 mm 1 m/s 742 mmHg 95%
08:00 -4°C° 0.1 mm 1 m/s 742 mmHg 94%
09:00 -3°C° 0.1 mm 1 m/s 743 mmHg 94%
10:00 -3°C° 0.1 mm 0 m/s 743 mmHg 93%
11:00 -1°C° 0.1 mm 1 m/s 742 mmHg 94%
12:00 -1°C° 0.1 mm 1 m/s 742 mmHg 96%
13:00 -1°C° 0.1 mm 1 m/s 742 mmHg 97%
14:00 -1°C° 0.3 mm 1 m/s 742 mmHg 97%
15:00 -1°C° 0.3 mm 1 m/s 742 mmHg 97%
16:00 -2°C° 0.3 mm 1 m/s 742 mmHg 97%
17:00 -3°C° 0.2 mm 1 m/s 742 mmHg 97%
18:00 -4°C° 0.2 mm 1 m/s 742 mmHg 97%
19:00 -6°C° 0.2 mm 1 m/s 743 mmHg 97%
20:00 -6°C° 0.1 mm 1 m/s 743 mmHg 97%
21:00 -6°C° 0.1 mm 1 m/s 743 mmHg 97%
22:00 -7°C° 0.1 mm 1 m/s 743 mmHg 97%
23:00 -7°C° 0.2 mm 1 m/s 742 mmHg 97%

28 Janeiro, Quinta-feira

Tempo Temperatura Precipitação Vento Pressão Humidade
00:00 -8°C° 0.2 mm 1 m/s 742 mmHg 97%
01:00 -8°C° 0.2 mm 1 m/s 742 mmHg 96%
02:00 -8°C° 0.1 mm 1 m/s 742 mmHg 96%
03:00 -9°C° 0.1 mm 1 m/s 742 mmHg 96%
04:00 -9°C° 0.1 mm 1 m/s 742 mmHg 96%
05:00 -9°C° 0.2 mm 1 m/s 742 mmHg 96%
06:00 -10°C° 0.2 mm 1 m/s 742 mmHg 96%
07:00 -12°C° 0.2 mm 2 m/s 743 mmHg 96%
08:00 -12°C° 0.1 mm 2 m/s 743 mmHg 95%
09:00 -13°C° 0.1 mm 2 m/s 743 mmHg 94%
10:00 -14°C° 0.1 mm 3 m/s 744 mmHg 93%
11:00 -14°C° 0.1 mm 3 m/s 743 mmHg 92%
12:00 -14°C° 0.1 mm 3 m/s 743 mmHg 92%
13:00 -15°C° 0.1 mm 4 m/s 743 mmHg 92%
14:00 -16°C° 0.2 mm 4 m/s 743 mmHg 92%
15:00 -17°C° 0.2 mm 4 m/s 743 mmHg 92%
16:00 -17°C° 0.2 mm 4 m/s 743 mmHg 93%
17:00 -18°C° 0.2 mm 4 m/s 744 mmHg 93%
18:00 -18°C° 0.2 mm 4 m/s 744 mmHg 93%
19:00 -19°C° 0.2 mm 4 m/s 745 mmHg 94%
20:00 -19°C° 0.2 mm 4 m/s 745 mmHg 94%
21:00 -20°C° 0.2 mm 4 m/s 744 mmHg 94%
22:00 -22°C° 0.2 mm 4 m/s 744 mmHg 95%
23:00 -22°C° 0.1 mm 4 m/s 744 mmHg 95%

29 Janeiro, Sexta-feira

Tempo Temperatura Precipitação Vento Pressão Humidade
00:00 -23°C° 0.1 mm 4 m/s 743 mmHg 96%
01:00 -24°C° 0.1 mm 4 m/s 743 mmHg 97%
02:00 -24°C° 0.1 mm 3 m/s 743 mmHg 97%
03:00 -24°C° 0.1 mm 3 m/s 743 mmHg 97%
04:00 -25°C° 0.1 mm 3 m/s 743 mmHg 98%
05:00 -25°C° 0.1 mm 3 m/s 743 mmHg 97%
06:00 -25°C° 0.1 mm 3 m/s 744 mmHg 97%
07:00 -25°C° 0.1 mm 3 m/s 744 mmHg 97%
08:00 -24°C° 0.1 mm 3 m/s 745 mmHg 96%
09:00 -24°C° 0.1 mm 3 m/s 745 mmHg 95%
10:00 -23°C° 0.1 mm 3 m/s 746 mmHg 94%
11:00 -22°C° 0.1 mm 3 m/s 746 mmHg 93%
12:00 -22°C° 0.1 mm 4 m/s 746 mmHg 92%
13:00 -22°C° 0.1 mm 4 m/s 746 mmHg 91%
14:00 -22°C° 0.1 mm 4 m/s 746 mmHg 92%
15:00 -21°C° 0.1 mm 3 m/s 746 mmHg 93%
16:00 -21°C° 0.1 mm 3 m/s 746 mmHg 93%
17:00 -21°C° 0.1 mm 3 m/s 747 mmHg 95%
18:00 -20°C° 0.1 mm 2 m/s 747 mmHg 96%
19:00 -21°C° 0.1 mm 2 m/s 748 mmHg 97%
20:00 -20°C° 0.1 mm 2 m/s 748 mmHg 97%
21:00 -20°C° 0.1 mm 2 m/s 748 mmHg 97%
22:00 -20°C° 0.1 mm 2 m/s 748 mmHg 98%
23:00 -21°C° 0.1 mm 2 m/s 748 mmHg 98%

30 Janeiro, Sábado

Tempo Temperatura Precipitação Vento Pressão Humidade
00:00 -20°C° 0.1 mm 1 m/s 748 mmHg 98%
01:00 -21°C° 0.1 mm 1 m/s 749 mmHg 99%
02:00 -22°C° 0 mm 1 m/s 749 mmHg 99%
03:00 -22°C° 0 mm 1 m/s 749 mmHg 99%
04:00 -23°C° 0 mm 1 m/s 749 mmHg 99%
05:00 -23°C° 0 mm 1 m/s 749 mmHg 99%
06:00 -23°C° 0 mm 1 m/s 750 mmHg 99%
07:00 -23°C° 0 mm 1 m/s 750 mmHg 99%
08:00 -22°C° 0 mm 1 m/s 750 mmHg 97%
09:00 -20°C° 0 mm 1 m/s 751 mmHg 94%
10:00 -18°C° 0 mm 1 m/s 751 mmHg 92%
11:00 -17°C° 0 mm 1 m/s 751 mmHg 90%
12:00 -16°C° 0 mm 1 m/s 751 mmHg 88%
13:00 -15°C° 0 mm 1 m/s 750 mmHg 86%
14:00 -15°C° 0 mm 1 m/s 750 mmHg 87%
15:00 -15°C° 0 mm 1 m/s 750 mmHg 89%
16:00 -15°C° 0 mm 1 m/s 750 mmHg 91%
17:00 -16°C° 0 mm 1 m/s 751 mmHg 91%
18:00 -18°C° 0 mm 1 m/s 751 mmHg 91%
19:00 -19°C° 0 mm 1 m/s 752 mmHg 91%
20:00 -20°C° 0 mm 1 m/s 751 mmHg 90%
21:00 -20°C° 0 mm 1 m/s 751 mmHg 89%
22:00 -20°C° 0 mm 0 m/s 751 mmHg 88%
23:00 -20°C° 0 mm 0 m/s 751 mmHg 87%
Mostrar mais